Weather History for Ketchikan, AK

Change the Weather History Date:

Wednesday, October 30, 2013

  Actual Average Record
Temperature  
Mean Temperature 48 °F -  
Max Temperature 51 °F 47 °F 59 °F (1958)
Min Temperature 46 °F 36 °F 18 °F (1984)
Degree Days  
Heating Degree Days 17    
Moisture  
Dew Point 46 °F    
Average Humidity 92    
Maximum Humidity 100    
Minimum Humidity 82    
Precipitation  
Precipitation 0.73 in - - ()
Sea Level Pressure  
Sea Level Pressure 29.72 in    
Wind  
Wind Speed 9 mph (SSE)    
Max Wind Speed 20 mph    
Max Gust Speed 26 mph    
Visibility 8 miles    
Events Rain    
Averages and records for this station are not official NWS values.
T = Trace of Precipitation, MM = Missing Value Source: NWS Daily Summary

Daily Weather History Graph

Daily Weather History Graph

Search for Another Location

Airport:

Trip Planner

Search our weather history database for the weather conditions in past years. The results will help you decide how hot, cold, wet, or windy it might be!

Date:

Astronomy

Oct. 30, 2013 Rise Set
Actual Time 7:48 AM AKDT 5:11 PM AKDT
Civil Twilight 7:09 AM AKDT 5:50 PM AKDT
Nautical Twilight 6:26 AM AKDT 6:33 PM AKDT
Astronomical Twilight 5:44 AM AKDT 7:15 PM AKDT
Moon 3:05 AM AKDT (10/30) 3:33 PM AKDT (10/30)
Length of Visible Light 10h 40m
Length of Day
9h 23m
Waning Crescent, 16% of the Moon is Illuminated
Oct 30
Waning Crescent
Nov 3
New
Nov 9
First Quarter
Nov 17
Full
Nov 25
Last Quarter

Hourly Weather History & Observations

Time (AKDT) Temp. Windchill Dew Point Humidity Pressure Visibility Wind Dir Wind Speed Gust Speed Precip Events Conditions
12:28 AM 46.4 °F 41.5 °F 44.6 °F 93% 29.84 in 10.0 mi SE 10.4 mph - N/A   Overcast
12:53 AM 46.9 °F - 45.0 °F 93% 29.84 in 10.0 mi SSE 5.8 mph - N/A   Overcast
1:53 AM 46.9 °F - 44.1 °F 90% 29.86 in 10.0 mi South 4.6 mph - N/A   Overcast
2:53 AM 46.9 °F - 44.1 °F 90% 29.84 in 10.0 mi South 4.6 mph - N/A   Overcast
3:53 AM 46.9 °F - 44.1 °F 90% 29.81 in 10.0 mi South 5.8 mph - N/A   Overcast
4:53 AM 48.0 °F - 43.0 °F 83% 29.80 in 10.0 mi South 6.9 mph - 0.00 in   Overcast
5:53 AM 48.0 °F - 43.0 °F 83% 29.77 in 10.0 mi SSE 8.1 mph - N/A   Overcast
6:05 AM 48.2 °F - 42.8 °F 82% 29.77 in 10.0 mi SSE 11.5 mph - 0.01 in Rain Light Rain
6:53 AM 46.9 °F - 43.0 °F 86% 29.75 in 10.0 mi SSE 13.8 mph 19.6 mph 0.06 in Rain Light Rain
7:53 AM 46.9 °F - 44.1 °F 90% 29.72 in 10.0 mi South 9.2 mph - 0.03 in Rain Light Rain
8:53 AM 46.9 °F - 45.0 °F 93% 29.70 in 4.0 mi SE 17.3 mph - 0.06 in Rain Light Rain
9:53 AM 46.9 °F - 46.0 °F 97% 29.69 in 3.0 mi SE 17.3 mph 21.9 mph 0.08 in Rain Light Rain
10:53 AM 46.9 °F - 46.0 °F 97% 29.68 in 3.0 mi SE 17.3 mph - 0.06 in Rain Light Rain
11:53 AM 48.0 °F - 45.0 °F 89% 29.65 in 3.0 mi SE 19.6 mph 25.3 mph 0.08 in Rain Light Rain
12:53 PM 48.0 °F - 46.0 °F 93% 29.64 in 3.0 mi SE 17.3 mph - 0.11 in Rain Rain
1:00 PM 48.2 °F - 46.4 °F 93% 29.63 in 3.0 mi SE 18.4 mph 26.5 mph 0.01 in Rain Rain
1:53 PM 48.0 °F - 46.9 °F 96% 29.63 in 3.0 mi SE 16.1 mph - 0.08 in Rain Rain
2:53 PM 48.0 °F - 46.9 °F 96% 29.62 in 5.0 mi SE 12.7 mph - 0.05 in Rain Light Rain
3:53 PM 48.0 °F - 46.9 °F 96% 29.62 in 3.0 mi SE 9.2 mph - 0.04 in Rain Light Rain
4:53 PM 48.0 °F - 48.0 °F 100% 29.61 in 3.0 mi SE 8.1 mph - 0.04 in Rain Light Rain
5:53 PM 48.9 °F - 48.0 °F 97% 29.63 in 10.0 mi SE 4.6 mph - 0.01 in   Overcast
6:53 PM 50.0 °F - 48.0 °F 93% 29.65 in 10.0 mi Calm Calm - N/A   Mostly Cloudy
7:53 PM 50.0 °F - 46.9 °F 89% 29.68 in 10.0 mi SE 4.6 mph - N/A   Overcast
8:53 PM 48.9 °F - 48.0 °F 97% 29.70 in 10.0 mi SE 3.5 mph - 0.00 in   Overcast
9:15 PM 48.2 °F - 46.4 °F 93% 29.71 in 10.0 mi SE 3.5 mph - N/A   Mostly Cloudy
9:53 PM 48.0 °F - 46.9 °F 96% 29.73 in 10.0 mi SSE 5.8 mph - N/A   Overcast
10:53 PM 48.0 °F - 46.9 °F 96% 29.76 in 10.0 mi SSW 4.6 mph - 0.03 in Rain Light Rain
11:53 PM 46.9 °F - 46.0 °F 97% 29.76 in 10.0 mi South 6.9 mph - 0.00 in   Overcast